• MPC Preparation (Info)

  • MPEC 2014-K55 : 2014 KM39

    The following Minor Planet Electronic Circular may be linked-to from your own Web pages, but must not otherwise be redistributed electronically.

    A form allowing access to any MPEC is at the bottom of this page.


    Read MPEC 2014-K54 Read MPEC 2014-K56


    M.P.E.C. 2014-K55                                Issued 2014 May 27, 00:06 UT
    
         The Minor Planet Electronic Circulars contain information on unusual
             minor planets and routine data on comets.  They are published
       on behalf of Commission 20 of the International Astronomical Union by the
              Minor Planet Center, Smithsonian Astrophysical Observatory,
                              Cambridge, MA 02138, U.S.A.
    
                 Prepared using the Tamkin Foundation Computer Network
    
                                  MPC@CFA.HARVARD.EDU
                URL https://www.minorplanetcenter.net/    ISSN 1523-6714
    
                                       2014 KM39
    
    Observations:
         K14K39M* C2014 05 25.38502 14 16 15.711+07 02 08.90         21.0 wLEK055F51
         K14K39M  C2014 05 25.39805 14 16 15.744+07 02 36.62         21.1 wLEK055F51
         K14K39M  C2014 05 25.41108 14 16 15.790+07 03 03.98         21.2 wLEK055F51
         K14K39M  C2014 05 25.42419 14 16 15.855+07 03 31.32         21.4 wLEK055F51
         K14K39M  C2014 05 25.94077 14 16 36.04 +07 20 17.3          20.2 VoEK055033
         K14K39M  C2014 05 25.94676 14 16 36.07 +07 20 29.4          20.2 VoEK055033
         K14K39M  C2014 05 25.99966 14 16 37.00 +07 22 09.5          21.5 VoEK055033
         K14K39M  C2014 05 26.00266 14 16 37.02 +07 22 15.7          21.5 VoEK055033
         K14K39M KC2014 05 26.96393914 17 13.716+07 51 06.05         20.3 RtEK055J04
         K14K39M KC2014 05 26.97165014 17 13.733+07 51 18.80         20.6 RtEK055J04
         K14K39M KC2014 05 26.97936114 17 13.757+07 51 31.39         20.1 RtEK055J04
    
    Observer details:
    033 Karl Schwarzschild Observatory, Tautenburg.  Observer B. Stecklum.  1.34-m
        f/4 Schmidt + CCD.
    F51 Pan-STARRS 1, Haleakala.  Observers N. Primak, A. Schultz, T. Goggia,
        M. Willman.  Measurer PS1 Science Consortium.  1.8-m Ritchey-Chretien
        + CCD.
    J04 ESA Optical Ground Station, Tenerife.  Observer D. Abreu.  Measurers
        M. Micheli, D. Koschny, M. Busch, A. Knoefel, E. Schwab.  1.0-m f/4.4
        reflector + CCD.
    
    Orbital elements:
    2014 KM39                                                Earth MOID = 0.0156 AU
    Epoch 2014 May 23.0 TT = JDT 2456800.5                  MPC
    M 101.07585              (2000.0)            P               Q
    n   1.14129950     Peri.  228.00308     -0.19108793     -0.96335381
    a   0.9068518      Node   233.97835     +0.95528629     -0.13843418
    e   0.3795803      Incl.   13.45863     +0.22564019     -0.22975077
    P   0.86           H   24.3           G   0.15           U   8
    Residuals in seconds of arc
    140525 F51  0.0   0.1-    140525 033  0.5+  0.2-    140526 J04  0.3+  0.2-
    140525 F51  0.0   0.1+    140525 033  0.4-  0.3+    140526 J04  0.0   0.0
    140525 F51  0.0   0.1+    140525 033  0.3+  0.3-    140526 J04  0.3-  0.1+
    140525 F51  0.1+  0.0     140526 033  0.3-  0.2+
    
    Ephemeris:
    2014 KM39                a,e,i = 0.91, 0.38, 13                  q = 0.5626
    Date    TT    R. A. (2000) Decl.     Delta      r     Elong.  Phase     V
    2014 04 27    02 25 03.3 -24 07 28   0.1055  0.9254    37.9   138.1    25.9
    ...
    2014 05 12    12 53 37.0 -67 16 53   0.01567 1.0193   125.8    53.5    17.3
    ...
    2014 05 20    14 11 59.8 +01 31 11   0.05978 1.0633   148.6    29.8    19.6
    ...
    2014 05 26    14 16 39.4 +07 23 10   0.1019  1.0932   140.2    36.4    21.0
    2014 05 27    14 17 15.0 +07 52 32   0.1091  1.0980   139.1    37.1    21.2
    2014 05 28    14 17 49.6 +08 17 23   0.1163  1.1027   138.1    37.8    21.4
    ...
    2014 06 03    14 21 15.5 +09 43 45   0.1600  1.1292   132.8    41.2    22.2
    ...
    2014 06 11    14 26 22.2 +10 09 07   0.2196  1.1605   126.9    44.4    23.0
    ...
    2014 06 26    14 38 29.0 +09 04 32   0.3337  1.2066   117.3    48.5    24.1
    
    A. U. Tomatic                (C) Copyright 2014 MPC           M.P.E.C. 2014-K55
    

    Read MPEC 2014-K54 Read MPEC 2014-K56


    MPEC number:

    Enter an MPEC number in one of the following forms:

    • 1997-B01 (the full form)
    • J97B01 (the packed version of the full form)
    • B01 (the abbreviated form)